Time,TemperatureF,DewpointF,PressureIn,WindDirection,WindDirectionDegrees,WindSpeedMPH,WindSpeedGustMPH,Humidity,HourlyPrecipIn,Conditions,Clouds,dailyrainin,SoftwareType,DateUTC
2013-05-30 00:02:00,75.0,62.0,29.88,SE,144,1.0,5.0,63,0.00,,,0.00,,2013-05-30 05:02:00,
2013-05-30 00:12:00,75.0,62.0,29.88,SE,144,1.0,5.0,63,0.00,,,0.00,,2013-05-30 05:12:00,
2013-05-30 00:22:00,74.0,61.0,29.88,SE,144,2.0,14.0,65,0.00,,,0.00,,2013-05-30 05:22:00,
2013-05-30 00:32:00,74.0,62.0,29.88,SE,135,1.0,6.0,66,0.00,,,0.00,,2013-05-30 05:32:00,
2013-05-30 00:42:00,74.0,62.0,29.88,SE,135,1.0,6.0,66,0.00,,,0.00,,2013-05-30 05:42:00,
2013-05-30 00:52:00,74.0,62.0,29.90,SSE,159,3.0,8.0,67,0.00,,,0.00,,2013-05-30 05:52:00,
2013-05-30 01:01:00,73.0,62.0,29.90,SE,136,2.0,9.0,68,0.00,,,0.00,,2013-05-30 06:01:00,
2013-05-30 01:12:00,73.0,62.0,29.90,SE,136,2.0,9.0,68,0.00,,,0.00,,2013-05-30 06:12:00,
2013-05-30 01:22:00,73.0,62.0,29.90,SE,135,1.0,8.0,69,0.00,,,0.00,,2013-05-30 06:22:00,
2013-05-30 01:32:00,73.0,63.0,29.90,SE,133,3.0,5.0,70,0.00,,,0.00,,2013-05-30 06:32:00,
2013-05-30 01:42:00,73.0,63.0,29.90,SE,133,3.0,5.0,70,0.00,,,0.00,,2013-05-30 06:42:00,
2013-05-30 01:52:00,73.0,63.0,29.89,SE,140,3.0,9.0,71,0.00,,,0.00,,2013-05-30 06:52:00,
2013-05-30 02:01:00,73.0,63.0,29.88,SE,125,3.0,8.0,71,0.00,,,0.00,,2013-05-30 07:01:00,
2013-05-30 02:12:00,73.0,63.0,29.88,SE,125,3.0,8.0,71,0.00,,,0.00,,2013-05-30 07:12:00,
2013-05-30 02:22:00,72.0,62.0,29.88,ESE,123,4.0,8.0,72,0.00,,,0.00,,2013-05-30 07:22:00,
2013-05-30 02:31:00,72.0,63.0,29.88,SE,142,3.0,6.0,73,0.00,,,0.00,,2013-05-30 07:31:00,
2013-05-30 02:42:00,72.0,63.0,29.88,SE,142,3.0,6.0,73,0.00,,,0.00,,2013-05-30 07:42:00,
2013-05-30 02:52:00,72.0,63.0,29.88,SSE,164,4.0,9.0,73,0.00,,,0.00,,2013-05-30 07:52:00,
2013-05-30 03:02:00,72.0,63.0,29.88,SSE,164,3.0,14.0,73,0.00,,,0.00,,2013-05-30 08:02:00,
2013-05-30 03:11:00,72.0,63.0,29.88,SSE,164,3.0,14.0,73,0.00,,,0.00,,2013-05-30 08:11:00,
2013-05-30 03:21:00,72.0,63.0,29.87,ESE,123,1.0,8.0,74,0.00,,,0.00,,2013-05-30 08:21:00,
2013-05-30 03:32:00,72.0,63.0,29.87,SSE,157,3.0,9.0,73,0.00,,,0.00,,2013-05-30 08:32:00,
2013-05-30 03:42:00,72.0,63.0,29.87,SSE,157,3.0,9.0,73,0.00,,,0.00,,2013-05-30 08:42:00,
2013-05-30 03:53:00,72.0,63.0,29.87,SSE,152,2.0,8.0,73,0.00,,,0.00,,2013-05-30 08:53:00,
2013-05-30 04:01:00,73.0,64.0,29.87,SSE,148,3.0,8.0,73,0.00,,,0.00,,2013-05-30 09:01:00,
2013-05-30 04:11:00,73.0,64.0,29.87,SSE,148,3.0,8.0,73,0.00,,,0.00,,2013-05-30 09:11:00,
2013-05-30 04:21:00,73.0,63.0,29.87,ESE,110,3.0,10.0,72,0.00,,,0.00,,2013-05-30 09:21:00,
2013-05-30 04:32:00,73.0,63.0,29.88,SSE,167,5.0,9.0,72,0.00,,,0.00,,2013-05-30 09:32:00,
2013-05-30 04:42:00,73.0,63.0,29.88,SSE,167,5.0,9.0,72,0.00,,,0.00,,2013-05-30 09:42:00,
2013-05-30 04:53:00,73.0,64.0,29.88,ESE,116,4.0,9.0,73,0.00,,,0.00,,2013-05-30 09:53:00,
2013-05-30 05:02:00,73.0,64.0,29.88,ESE,123,6.0,8.0,73,0.00,,,0.00,,2013-05-30 10:02:00,
2013-05-30 05:12:00,73.0,64.0,29.88,ESE,123,6.0,8.0,73,0.00,,,0.00,,2013-05-30 10:12:00,
2013-05-30 05:22:00,73.0,64.0,29.88,SSE,160,3.0,10.0,73,0.00,,,0.00,,2013-05-30 10:22:00,
2013-05-30 05:32:00,73.0,64.0,29.88,SSE,159,6.0,9.0,73,0.00,,,0.00,,2013-05-30 10:32:00,
2013-05-30 05:42:00,73.0,64.0,29.88,SSE,159,6.0,9.0,73,0.00,,,0.00,,2013-05-30 10:42:00,
2013-05-30 05:52:00,73.0,64.0,29.89,SSW,195,3.0,9.0,73,0.00,,,0.00,,2013-05-30 10:52:00,
2013-05-30 06:03:00,73.0,64.0,29.89,SSE,152,9.0,9.0,73,0.00,,,0.00,,2013-05-30 11:03:00,
2013-05-30 06:12:00,73.0,64.0,29.89,SSE,152,9.0,9.0,73,0.00,,,0.00,,2013-05-30 11:12:00,
2013-05-30 06:22:00,74.0,64.0,29.89,SE,130,5.0,21.0,72,0.00,,,0.00,,2013-05-30 11:22:00,
2013-05-30 06:32:00,74.0,64.0,29.89,SE,140,4.0,9.0,72,0.00,,,0.00,,2013-05-30 11:32:00,
2013-05-30 06:42:00,74.0,64.0,29.89,SE,140,4.0,9.0,72,0.00,,,0.00,,2013-05-30 11:42:00,
2013-05-30 06:52:00,74.0,65.0,29.90,SSE,162,6.0,14.0,73,0.00,,,0.00,,2013-05-30 11:52:00,
2013-05-30 07:01:00,74.0,65.0,29.90,SE,124,5.0,15.0,73,0.00,,,0.00,,2013-05-30 12:01:00,
2013-05-30 07:11:00,74.0,65.0,29.90,SE,124,5.0,15.0,73,0.00,,,0.00,,2013-05-30 12:11:00,
2013-05-30 07:22:00,74.0,65.0,29.90,SE,138,4.0,10.0,74,0.00,,,0.00,,2013-05-30 12:22:00,
2013-05-30 07:32:00,74.0,65.0,29.90,SE,143,9.0,15.0,73,0.00,,,0.00,,2013-05-30 12:32:00,
2013-05-30 07:42:00,74.0,65.0,29.90,SE,143,9.0,15.0,73,0.00,,,0.00,,2013-05-30 12:42:00,
2013-05-30 07:52:00,74.0,65.0,29.91,SE,145,6.0,9.0,74,0.00,,,0.00,,2013-05-30 12:52:00,
2013-05-30 08:01:00,75.0,66.0,29.91,SE,141,9.0,15.0,73,0.00,,,0.00,,2013-05-30 13:01:00,
2013-05-30 08:11:00,75.0,66.0,29.91,SE,141,9.0,15.0,73,0.00,,,0.00,,2013-05-30 13:11:00,
2013-05-30 08:22:00,75.0,65.0,29.90,SE,128,7.0,10.0,72,0.00,,,0.00,,2013-05-30 13:22:00,
2013-05-30 08:32:00,75.0,66.0,29.90,SE,125,5.0,15.0,73,0.00,,,0.00,,2013-05-30 13:32:00,
2013-05-30 08:42:00,75.0,66.0,29.90,SE,125,5.0,15.0,73,0.00,,,0.00,,2013-05-30 13:42:00,
2013-05-30 08:52:00,76.0,66.0,29.91,SE,127,3.0,18.0,72,0.00,,,0.00,,2013-05-30 13:52:00,
2013-05-30 09:01:00,76.0,66.0,29.90,SSE,152,8.0,18.0,71,0.00,,,0.00,,2013-05-30 14:01:00,
2013-05-30 09:11:00,76.0,66.0,29.90,SSE,152,8.0,18.0,71,0.00,,,0.00,,2013-05-30 14:11:00,
2013-05-30 09:22:00,77.0,66.0,29.90,SSE,158,9.0,29.0,70,0.00,,,0.00,,2013-05-30 14:22:00,
2013-05-30 09:32:00,77.0,66.0,29.90,SE,141,8.0,16.0,70,0.00,,,0.00,,2013-05-30 14:32:00,
2013-05-30 09:42:00,77.0,66.0,29.90,SE,141,8.0,16.0,70,0.00,,,0.00,,2013-05-30 14:42:00,
2013-05-30 09:52:00,78.0,67.0,29.89,SE,145,12.0,21.0,69,0.00,,,0.00,,2013-05-30 14:52:00,
2013-05-30 10:01:00,78.0,67.0,29.89,SSE,155,7.0,21.0,69,0.00,,,0.00,,2013-05-30 15:01:00,
2013-05-30 10:11:00,78.0,67.0,29.89,SSE,155,7.0,21.0,69,0.00,,,0.00,,2013-05-30 15:11:00,
2013-05-30 10:22:00,79.0,67.0,29.88,SE,132,5.0,15.0,67,0.00,,,0.00,,2013-05-30 15:22:00,
2013-05-30 10:33:00,79.0,67.0,29.88,SSE,147,11.0,16.0,66,0.00,,,0.00,,2013-05-30 15:33:00,
2013-05-30 10:42:00,80.0,66.0,29.88,SSE,166,11.0,20.0,63,0.00,,,0.00,,2013-05-30 15:42:00,
2013-05-30 10:53:00,80.0,66.0,29.88,SSE,166,11.0,20.0,63,0.00,,,0.00,,2013-05-30 15:53:00,
2013-05-30 11:03:00,81.0,67.0,29.88,SE,132,10.0,14.0,63,0.00,,,0.00,,2013-05-30 16:03:00,
2013-05-30 11:12:00,81.0,67.0,29.88,SE,132,10.0,14.0,63,0.00,,,0.00,,2013-05-30 16:12:00,
2013-05-30 11:22:00,81.0,66.0,29.88,SE,144,9.0,26.0,61,0.00,,,0.00,,2013-05-30 16:22:00,
2013-05-30 11:33:00,82.0,67.0,29.88,SSE,148,7.0,24.0,60,0.00,,,0.00,,2013-05-30 16:33:00,
2013-05-30 11:42:00,82.0,67.0,29.88,SSE,148,7.0,24.0,60,0.00,,,0.00,,2013-05-30 16:42:00,
2013-05-30 11:53:00,82.0,66.0,29.88,SE,131,8.0,20.0,59,0.00,,,0.00,,2013-05-30 16:53:00,
2013-05-30 12:02:00,83.0,66.0,29.88,SE,125,11.0,31.0,56,0.00,,,0.00,,2013-05-30 17:02:00,
2013-05-30 12:11:00,83.0,66.0,29.88,SE,125,11.0,31.0,56,0.00,,,0.00,,2013-05-30 17:11:00,
2013-05-30 12:22:00,83.0,66.0,29.88,ESE,121,9.0,24.0,57,0.00,,,0.00,,2013-05-30 17:22:00,
2013-05-30 12:32:00,83.0,65.0,29.87,SSE,168,14.0,20.0,55,0.00,,,0.00,,2013-05-30 17:32:00,
2013-05-30 12:42:00,83.0,65.0,29.87,SSE,168,14.0,20.0,55,0.00,,,0.00,,2013-05-30 17:42:00,
2013-05-30 12:52:00,83.0,65.0,29.88,SSE,152,5.0,23.0,55,0.00,,,0.00,,2013-05-30 17:52:00,
2013-05-30 13:02:00,83.0,66.0,29.87,SSE,155,5.0,16.0,56,0.00,,,0.00,,2013-05-30 18:02:00,
2013-05-30 13:11:00,83.0,66.0,29.87,SSE,155,5.0,16.0,56,0.00,,,0.00,,2013-05-30 18:11:00,
2013-05-30 13:22:00,82.0,65.0,29.88,SE,134,13.0,26.0,56,0.00,,,0.00,,2013-05-30 18:22:00,
2013-05-30 13:32:00,83.0,66.0,29.87,ESE,115,7.0,23.0,56,0.00,,,0.00,,2013-05-30 18:32:00,
2013-05-30 13:42:00,83.0,66.0,29.87,ESE,115,7.0,23.0,56,0.00,,,0.00,,2013-05-30 18:42:00,
2013-05-30 13:52:00,83.0,66.0,29.86,South,174,6.0,21.0,56,0.00,,,0.00,,2013-05-30 18:52:00,
2013-05-30 14:01:00,83.0,65.0,29.86,East,98,12.0,31.0,55,0.00,,,0.00,,2013-05-30 19:01:00,
2013-05-30 14:11:00,83.0,65.0,29.86,East,98,12.0,31.0,55,0.00,,,0.00,,2013-05-30 19:11:00,
2013-05-30 14:23:00,83.0,65.0,29.85,South,178,9.0,24.0,54,0.00,,,0.00,,2013-05-30 19:23:00,
2013-05-30 14:32:00,83.0,65.0,29.85,SE,145,7.0,20.0,55,0.00,,,0.00,,2013-05-30 19:32:00,
2013-05-30 14:42:00,83.0,65.0,29.85,SE,145,7.0,20.0,55,0.00,,,0.00,,2013-05-30 19:42:00,
2013-05-30 14:53:00,83.0,65.0,29.84,SSE,150,6.0,25.0,55,0.00,,,0.00,,2013-05-30 19:53:00,
2013-05-30 15:01:00,84.0,65.0,29.83,SSE,147,16.0,30.0,53,0.00,,,0.00,,2013-05-30 20:01:00,
2013-05-30 15:11:00,84.0,65.0,29.83,SSE,147,16.0,30.0,53,0.00,,,0.00,,2013-05-30 20:11:00,
2013-05-30 15:22:00,83.0,65.0,29.82,SSE,158,10.0,18.0,55,0.00,,,0.00,,2013-05-30 20:22:00,
2013-05-30 15:33:00,82.0,66.0,29.83,SSE,167,8.0,24.0,59,0.00,,,0.00,,2013-05-30 20:33:00,
2013-05-30 15:42:00,82.0,66.0,29.83,SSE,167,8.0,24.0,59,0.00,,,0.00,,2013-05-30 20:42:00,
2013-05-30 15:52:00,77.0,68.0,29.84,ESE,123,14.0,26.0,73,0.04,,,0.04,,2013-05-30 20:52:00,
2013-05-30 16:01:00,76.0,66.0,29.83,SSE,147,8.0,24.0,72,0.04,,,0.04,,2013-05-30 21:01:00,
2013-05-30 16:11:00,76.0,66.0,29.83,SSE,147,8.0,24.0,72,0.04,,,0.04,,2013-05-30 21:11:00,
2013-05-30 16:22:00,77.0,68.0,29.82,SE,137,3.0,14.0,73,0.04,,,0.04,,2013-05-30 21:22:00,
2013-05-30 16:33:00,77.0,68.0,29.82,SE,142,2.0,10.0,73,0.04,,,0.04,,2013-05-30 21:33:00,
2013-05-30 16:42:00,77.0,68.0,29.82,SE,142,2.0,10.0,73,0.04,,,0.04,,2013-05-30 21:42:00,
2013-05-30 16:53:00,78.0,68.0,29.82,SE,143,7.0,14.0,71,0.00,,,0.04,,2013-05-30 21:53:00,
2013-05-30 17:02:00,77.0,67.0,29.81,South,171,12.0,18.0,71,0.00,,,0.04,,2013-05-30 22:02:00,
2013-05-30 17:12:00,77.0,67.0,29.81,South,171,12.0,18.0,71,0.00,,,0.04,,2013-05-30 22:12:00,
2013-05-30 17:23:00,75.0,65.0,29.81,SSE,152,9.0,18.0,72,0.00,,,0.04,,2013-05-30 22:23:00,
2013-05-30 17:33:00,75.0,65.0,29.82,SE,144,6.0,15.0,71,0.00,,,0.04,,2013-05-30 22:33:00,
2013-05-30 17:42:00,77.0,66.0,29.82,SE,128,9.0,14.0,69,0.00,,,0.04,,2013-05-30 22:42:00,
2013-05-30 17:52:00,77.0,66.0,29.82,SE,128,9.0,14.0,69,0.00,,,0.04,,2013-05-30 22:52:00,
2013-05-30 18:02:00,78.0,67.0,29.81,SE,146,5.0,10.0,69,0.00,,,0.04,,2013-05-30 23:02:00,
2013-05-30 18:11:00,78.0,67.0,29.81,SE,146,5.0,10.0,69,0.00,,,0.04,,2013-05-30 23:11:00,
2013-05-30 18:22:00,79.0,68.0,29.81,SSE,163,5.0,10.0,69,0.00,,,0.04,,2013-05-30 23:22:00,
2013-05-30 18:32:00,79.0,68.0,29.81,SE,143,5.0,18.0,69,0.00,,,0.04,,2013-05-30 23:32:00,
2013-05-30 18:41:00,79.0,68.0,29.81,SE,143,5.0,18.0,69,0.00,,,0.04,,2013-05-30 23:41:00,
2013-05-30 18:52:00,79.0,68.0,29.80,ESE,115,7.0,15.0,68,0.00,,,0.04,,2013-05-30 23:52:00,
2013-05-30 19:01:00,79.0,68.0,29.81,SE,143,6.0,15.0,68,0.00,,,0.04,,2013-05-31 00:01:00,
2013-05-30 19:11:00,79.0,68.0,29.81,SE,143,6.0,15.0,68,0.00,,,0.04,,2013-05-31 00:11:00,
2013-05-30 19:22:00,79.0,68.0,29.79,SE,132,5.0,16.0,68,0.00,,,0.04,,2013-05-31 00:22:00,
2013-05-30 19:32:00,79.0,68.0,29.80,SE,136,6.0,21.0,68,0.00,,,0.04,,2013-05-31 00:32:00,
2013-05-30 19:42:00,79.0,67.0,29.79,SSE,164,7.0,14.0,67,0.00,,,0.04,,2013-05-31 00:42:00,
2013-05-30 19:52:00,79.0,67.0,29.79,SSE,164,7.0,14.0,67,0.00,,,0.04,,2013-05-31 00:52:00,
2013-05-30 20:01:00,79.0,67.0,29.80,SE,135,7.0,15.0,67,0.00,,,0.04,,2013-05-31 01:01:00,
2013-05-30 20:12:00,79.0,67.0,29.80,SE,135,7.0,15.0,67,0.00,,,0.04,,2013-05-31 01:12:00,
2013-05-30 20:21:00,78.0,67.0,29.82,SE,140,6.0,15.0,68,0.00,,,0.04,,2013-05-31 01:21:00,
2013-05-30 20:32:00,78.0,67.0,29.82,SE,146,6.0,15.0,68,0.00,,,0.04,,2013-05-31 01:32:00,
2013-05-30 20:42:00,78.0,67.0,29.82,SE,132,6.0,14.0,68,0.00,,,0.04,,2013-05-31 01:42:00,
2013-05-30 20:52:00,78.0,67.0,29.82,SE,132,6.0,14.0,68,0.00,,,0.04,,2013-05-31 01:52:00,
2013-05-30 21:02:00,77.0,66.0,29.81,SE,126,2.0,14.0,69,0.00,,,0.04,,2013-05-31 02:02:00,
2013-05-30 21:11:00,77.0,66.0,29.81,SE,126,2.0,14.0,69,0.00,,,0.04,,2013-05-31 02:11:00,
2013-05-30 21:21:00,77.0,66.0,29.82,SE,129,6.0,15.0,69,0.00,,,0.04,,2013-05-31 02:21:00,
2013-05-30 21:32:00,77.0,66.0,29.82,SE,124,5.0,9.0,70,0.00,,,0.04,,2013-05-31 02:32:00,
2013-05-30 21:41:00,77.0,66.0,29.82,SE,124,5.0,9.0,70,0.00,,,0.04,,2013-05-31 02:41:00,
2013-05-30 21:52:00,76.0,66.0,29.83,SE,129,5.0,10.0,71,0.00,,,0.04,,2013-05-31 02:52:00,
2013-05-30 22:01:00,76.0,66.0,29.84,SE,135,2.0,10.0,71,0.00,,,0.04,,2013-05-31 03:01:00,
2013-05-30 22:11:00,76.0,66.0,29.84,SE,135,2.0,10.0,71,0.00,,,0.04,,2013-05-31 03:11:00,
2013-05-30 22:21:00,76.0,66.0,29.83,SSE,152,4.0,10.0,72,0.00,,,0.04,,2013-05-31 03:21:00,
2013-05-30 22:33:00,76.0,66.0,29.83,SE,131,4.0,8.0,72,0.00,,,0.04,,2013-05-31 03:33:00,
2013-05-30 22:43:00,76.0,66.0,29.83,SE,131,4.0,8.0,72,0.00,,,0.04,,2013-05-31 03:43:00,
2013-05-30 22:53:00,76.0,66.0,29.83,South,175,5.0,16.0,72,0.00,,,0.04,,2013-05-31 03:53:00,
2013-05-30 23:02:00,76.0,64.0,29.85,South,180,10.0,20.0,67,0.00,,,0.04,,2013-05-31 04:02:00,
2013-05-30 23:12:00,76.0,64.0,29.85,South,180,10.0,20.0,67,0.00,,,0.04,,2013-05-31 04:12:00,
2013-05-30 23:22:00,71.0,63.0,29.85,ESE,115,0.0,9.0,77,0.07,,,0.11,,2013-05-31 04:22:00,
2013-05-30 23:32:00,69.0,63.0,29.85,ESE,115,0.0,5.0,82,0.08,,,0.12,,2013-05-31 04:32:00,
2013-05-30 23:42:00,69.0,63.0,29.85,ESE,115,0.0,5.0,82,0.08,,,0.12,,2013-05-31 04:42:00,
2013-05-30 23:53:00,68.0,64.0,29.88,SSW,207,6.0,10.0,86,0.16,,,0.20,,2013-05-31 04:53:00,